Temp
65 65 65 66 67 67 67 68 67 67 68 69 69 71 70 69 64 61 60 60 62 64 67 66 67 70 69 67 69 68 69 63 64 69 67 65 63 55 53 51 52 52 51 51 51 50 51 52 52 54 55 55 55 54 53 53 53 53 53 52 52 52 52 52 53 54 57 59 61 59 58 57 58 59
66 65 66 67 67 67 68 67 66 67 67 68 69 69 70 70 67 65 61 59 63 63 65 66 66 68 68 68 67 68 68 60 66 69 68 66 63 54 52 51 50 51 51 51 50 50 50 50 52 53 53 53 52 52 52 52 52 52 53 52 54 54 55 54 54 54 55 56 57 58 57 57 57 58
66 65 65 66 66 66 66 66 67 67 67 68 69 68 69 68 67 66 65 60 60 64 61 63 67 66 67 69 66 66 67 63 65 66 66 68 58 58 56 51 51 51 50 50 50 50 50 50 50 51 52 53 53 52 52 51 51 51 52 52 53 54 56 56 55 56 57 57 58 59 58 57 57 58
66 66 66 66 67 66 68 67 67 67 67 67 69 68 67 67 66 67 65 62 58 62 63 63 65 66 64 67 67 66 68 65 60 68 66 65 60 68 66 53 51 51 50 50 50 50 50 50 49 49 50 50 51 50 50 51 50 50 50 50 52 53 55 56 55 55 56 57 58 58 57 57 57 57
66 67 67 66 66 66 67 68 67 68 68 67 67 68 68 66 67 67 64 62 59 60 63 63 64 64 65 66 67 66 65 65 67 64 66 66 66 67 68 65 52 50 50 50 50 50 50 49 49 49 48 49 50 50 49 49 49 47 47 48 51 52 53 54 53 53 54 55 57 56 55 56 57 57
66 66 67 67 66 67 68 67 70 69 69 69 69 68 68 68 66 67 67 64 62 58 61 62 65 64 65 65 66 63 62 62 65 67 67 68 68 67 68 68 62 49 51 50 49 50 49 49 50 49 48 48 49 50 49 48 47 45 44 44 47 50 50 51 51 50 51 52 53 53 54 55 56 57
67 66 66 66 66 64 65 66 68 67 68 71 70 67 68 66 66 68 69 65 62 60 59 61 63 62 62 62 65 65 64 64 66 66 65 66 67 67 66 67 67 49 50 49 49 49 49 50 50 49 49 48 48 48 48 48 47 45 44 43 45 46 47 47 48 50 50 50 51 52 53 54 56 57
68 67 66 66 65 65 65 66 66 67 67 67 68 66 66 65 65 64 65 66 64 63 60 60 64 63 61 63 65 65 65 64 64 65 66 66 66 66 67 67 67 57 50 50 49 50 50 50 50 49 49 49 48 48 48 48 47 45 43 44 44 45 46 47 47 48 49 50 50 51 51 53 55 57
68 67 67 68 67 66 65 65 66 66 65 68 67 66 67 67 65 64 65 66 66 64 61 59 61 62 64 64 63 64 64 65 65 65 64 64 65 64 65 66 65 55 52 53 51 50 49 49 50 49 49 49 48 48 48 48 47 45 44 44 44 44 46 47 47 48 48 49 49 50 51 51 53 56
68 67 68 68 67 66 65 65 65 65 65 66 66 66 67 68 64 63 63 64 64 65 63 62 60 60 62 63 62 63 62 61 62 63 64 64 63 62 61 63 63 64 63 61 61 55 55 53 51 50 50 48 48 47 48 48 47 46 45 43 43 44 44 45 46 48 46 47 48 49 50 51 53 54
67 67 68 68 67 67 67 66 65 65 64 64 65 65 64 66 64 63 64 66 65 63 62 62 62 61 61 60 61 64 63 63 62 59 60 61 64 62 60 60 63 63 61 58 51 53 52 50 55 52 49 48 48 48 48 49 47 46 45 42 42 43 44 44 45 47 48 49 48 47 46 46 49 51
67 67 67 67 67 67 68 68 67 66 65 64 64 64 64 64 63 63 63 63 64 63 62 63 62 62 61 60 61 63 63 62 62 61 58 57 58 59 61 61 59 60 60 60 62 57 55 56 54 50 51 50 49 49 50 52 49 47 45 42 42 44 45 45 45 47 47 48 47 45 45 46 49 48
67 67 67 67 67 66 60 56 58 59 59 65 64 62 62 62 62 63 63 63 63 63 62 61 62 62 62 61 60 60 59 57 56 57 58 57 59 59 59 62 62 61 59 60 62 62 59 60 60 62 62 62 56 57 51 54 51 48 44 43 43 44 45 45 46 46 46 47 46 45 45 45 46 45
68 67 67 66 58 54 53 51 48 48 49 54 63 64 61 60 61 61 61 62 63 63 62 62 61 60 60 60 58 57 56 57 58 57 57 56 57 58 58 60 61 60 58 57 57 60 61 58 60 61 60 60 59 60 61 59 52 47 42 43 44 44 44 44 45 45 45 45 45 45 45 45 44 45
68 68 68 67 61 56 53 55 46 46 45 45 48 51 53 55 62 61 60 61 61 60 60 60 58 58 58 58 59 58 58 57 56 56 56 55 55 54 53 53 58 62 56 55 55 57 60 59 58 60 59 59 59 59 59 49 46 44 42 43 44 44 44 44 44 43 43 43 43 43 43 44 44 45
66 66 66 66 65 64 64 64 61 52 45 44 44 44 46 48 45 42 57 60 59 59 59 55 55 56 57 59 58 58 57 56 56 55 55 54 53 52 52 53 52 58 57 53 53 54 60 59 57 56 58 59 58 58 52 47 46 44 43 43 43 43 43 43 43 43 43 43 43 43 43 44 43 43
64 64 64 64 63 65 55 58 63 63 58 45 42 43 43 41 40 39 37 41 55 63 60 58 56 57 58 57 57 56 54 54 54 55 55 55 54 53 52 53 54 55 56 53 52 52 56 58 56 55 57 58 57 57 51 48 47 45 42 43 43 43 43 42 43 43 43 43 43 43 44 44 44 44
62 62 63 63 63 63 62 63 62 62 61 57 55 55 58 58 50 43 42 43 42 51 60 59 58 56 57 57 55 54 54 53 54 53 53 53 52 52 52 53 53 55 56 52 51 50 55 58 55 54 57 58 57 58 52 46 46 44 42 42 42 43 43 43 42 42 42 42 42 43 43 43 43 43
58 60 60 61 62 61 61 60 57 60 60 59 59 59 58 57 56 54 55 56 58 57 57 58 57 56 56 55 54 55 55 54 54 53 52 52 51 51 52 53 54 54 57 54 51 47 53 56 54 54 56 57 57 58 52 48 45 43 42 42 43 43 43 43 42 42 42 42 42 42 41 42 42 42
58 59 60 61 60 59 59 46 42 52 60 60 59 57 56 54 51 48 43 41 44 51 55 56 56 56 51 46 52 52 53 55 54 53 54 53 52 51 51 51 54 53 57 55 51 49 51 55 52 53 56 56 55 57 57 50 43 43 42 42 42 43 43 43 42 42 42 42 42 42 42 42 41 41
57 57 58 59 59 58 57 42 40 43 52 60 59 57 54 53 54 52 50 43 40 39 39 38 38 38 38 40 39 39 37 46 49 52 51 51 52 49 48 50 51 52 55 55 54 51 49 53 53 51 54 54 53 54 55 57 47 45 44 43 43 43 44 43 42 42 42 41 42 41 41 41 41 41
57 52 45 52 58 57 54 39 40 42 55 60 58 56 55 54 53 51 51 51 47 39 39 38 38 38 38 38 36 37 39 38 42 51 49 50 50 48 48 47 49 51 52 53 55 49 49 52 53 51 53 53 54 55 56 56 54 48 46 45 44 44 44 43 42 42 43 42 42 42 41 42 42 50
57 55 49 42 48 51 45 37 40 42 53 59 58 58 57 54 53 52 52 51 51 52 52 51 49 47 44 48 52 49 37 37 42 50 50 51 49 47 48 47 47 46 50 54 53 47 49 50 51 51 48 47 52 55 55 55 56 57 56 56 56 47 44 44 42 42 42 43 43 42 42 42 42 55
56 56 55 48 39 38 38 39 39 40 45 57 58 58 57 54 51 53 52 51 52 51 50 50 50 50 51 51 51 52 52 51 51 51 51 51 50 48 47 47 47 45 48 53 53 48 49 50 49 52 49 45 42 51 54 54 55 58 57 56 55 50 48 45 45 43 42 44 43 42 42 43 43 55
57 56 55 54 41 38 38 39 38 40 41 45 56 56 55 53 50 49 52 46 41 50 49 49 49 51 52 52 52 52 52 52 52 51 51 51 50 49 47 47 46 47 50 53 48 50 46 49 48 49 50 51 50 50 52 54 56 55 54 54 53 55 57 57 54 58 48 43 42 42 42 43 41 48
57 56 55 54 42 37 38 38 38 38 40 41 53 46 38 35 39 50 50 51 51 50 50 51 50 51 51 51 51 51 51 51 50 51 51 50 50 50 50 48 45 44 46 52 44 48 46 46 48 47 49 48 49 51 49 51 53 53 54 54 53 54 54 54 55 55 56 57 58 51 52 44 42 41
55 55 53 48 38 38 37 38 38 39 39 43 44 35 36 36 36 43 52 50 50 50 50 49 49 49 50 49 49 49 49 50 50 50 50 50 49 49 49 49 49 48 50 51 51 49 47 46 48 46 45 47 45 47 46 45 48 53 51 51 51 53 54 55 54 54 55 56 56 47 44 42 41 41
54 54 53 47 37 37 37 37 37 37 40 43 35 36 35 37 41 50 50 49 49 46 47 47 48 48 49 48 48 48 49 48 48 48 47 48 50 50 50 50 49 50 50 51 52 52 49 47 46 47 46 44 43 42 42 47 47 48 47 50 51 52 53 54 55 54 54 55 55 56 57 55 54 50
53 43 37 36 37 37 37 37 38 38 36 35 35 35 36 41 51 50 50 49 48 47 46 47 47 47 48 48 47 47 46 47 47 48 49 49 49 48 47 47 46 46 45 47 48 49 48 47 45 46 45 45 43 43 43 43 45 45 46 45 45 50 52 54 53 53 52 53 53 54 55 54 54 54
36 36 37 36 36 38 42 49 49 48 44 36 35 36 41 50 49 49 49 48 46 46 46 45 45 46 47 46 47 47 47 46 47 47 45 44 44 45 44 43 44 46 47 48 48 48 48 47 45 45 44 44 43 42 43 42 42 44 45 44 46 47 49 50 51 53 52 52 53 53 55 55 54 53
45 44 44 44 39 39 36 38 39 41 40 44 47 49 48 48 48 48 47 46 45 45 45 45 45 46 48 49 46 45 44 43 44 45 42 41 42 42 43 41 40 41 44 47 48 48 47 47 46 45 41 42 42 43 43 43 42 42 43 44 43 38 44 49 50 51 52 52 53 53 52 52 52 50
48 45 38 41 47 47 48 48 49 49 48 45 42 48 48 47 45 42 39 40 46 46 46 46 46 47 46 44 44 43 42 42 43 44 42 41 41 41 41 38 37 40 41 44 45 47 43 46 45 45 44 42 40 41 43 42 41 41 41 43 43 44 45 45 47 49 51 51 50 48 49 49 49 51
48 49 49 47 47 47 43 45 43 47 47 45 45 45 47 47 47 47 47 46 45 45 45 43 43 43 44 43 43 42 42 42 43 44 42 42 41 41 41 38 38 39 39 40 42 44 45 46 46 45 44 45 44 43 41 38 41 42 41 42 42 42 45 46 47 48 51 49 47 47 46 47 49 50
48 46 46 45 46 44 45 46 45 45 45 43 44 43 41 45 46 46 45 45 45 44 42 43 42 40 40 40 41 41 40 41 42 43 39 41 41 39 38 38 39 40 39 39 40 42 43 44 44 45 45 44 45 44 42 39 39 41 42 42 42 42 45 47 48 49 49 49 47 45 45 46 49 50
47 46 46 46 45 45 46 44 45 44 44 44 45 44 44 45 43 42 41 44 43 42 42 42 42 42 39 39 40 39 39 39 40 42 42 42 41 40 39 38 37 38 39 39 39 41 42 41 41 39 40 41 41 44 46 45 41 41 43 43 44 44 45 47 47 48 49 47 46 41 41 45 47 49
47 48 47 46 44 45 44 43 42 42 42 43 43 42 44 44 45 42 43 42 43 42 41 42 42 41 40 40 39 39 38 38 38 39 39 40 39 38 38 37 37 38 39 39 39 41 40 40 39 36 33 34 34 34 38 44 43 44 41 41 44 44 45 46 45 45 44 44 43 41 40 40 43 45
47 47 45 45 43 43 43 42 43 43 44 42 43 44 43 43 44 42 44 40 42 41 41 41 41 41 40 40 39 38 38 37 38 38 38 39 38 38 37 38 37 37 37 38 39 40 40 38 38 35 32 32 32 32 36 42 41 43 46 41 42 44 43 40 40 41 42 41 41 40 39 40 41 42
46 45 43 45 45 45 43 43 41 42 43 43 43 43 44 45 46 46 46 45 42 42 43 43 43 42 41 40 38 38 37 38 38 38 38 38 37 37 36 35 35 36 37 39 40 40 40 38 36 34 33 31 32 32 34 39 41 41 42 43 40 40 40 40 40 40 41 41 40 40 39 39 40 41
48 45 42 44 44 44 43 43 43 43 44 44 43 43 42 44 45 44 43 43 43 41 43 43 43 41 39 39 38 38 37 37 37 37 38 37 37 36 35 35 35 37 37 37 39 40 39 37 36 35 35 33 32 34 36 34 35 40 42 39 43 42 43 41 41 41 41 40 40 37 37 36 35 34
46 46 45 45 44 45 44 44 43 44 43 43 44 46 45 43 43 42 42 42 41 40 41 42 41 40 39 39 38 38 37 36 36 37 37 37 37 36 36 36 35 35 35 35 36 39 39 38 37 37 37 36 37 38 38 38 38 40 41 41 39 40 41 43 41 41 41 40 40 38 38 38 37 37
44 44 44 44 44 45 44 45 46 44 44 45 46 42 44 43 42 42 42 41 40 41 42 43 41 39 39 38 37 37 36 37 38 37 37 37 36 36 36 35 35 35 34 34 35 36 39 41 40 36 38 39 38 38 36 33 33 37 39 43 40 37 37 39 42 42 40 40 40 39 38 37 37 37
44 44 44 45 45 46 46 45 46 45 44 44 44 41 41 41 41 38 39 38 38 39 42 42 41 40 39 39 38 37 37 36 36 36 36 36 36 36 36 36 36 36 35 34 35 37 40 43 40 40 38 38 37 33 32 34 35 37 40 43 43 37 36 35 36 37 42 42 40 37 36 36 38 38
45 42 43 42 45 45 46 45 46 45 44 44 44 42 42 43 44 43 44 43 42 42 42 42 41 40 39 39 39 38 37 36 36 36 35 36 35 35 35 35 35 35 35 36 37 38 39 39 39 39 39 38 37 36 34 36 37 39 40 41 42 43 42 37 36 35 35 35 36 37 39 39 37 36
44 41 44 45 44 44 45 45 45 45 42 41 44 43 43 43 42 42 42 43 42 42 41 41 41 39 38 38 38 38 38 38 37 36 36 36 35 35 34 34 35 35 36 36 37 38 39 39 39 39 38 38 39 38 37 37 38 40 41 41 40 39 38 39 39 37 37 36 34 35 34 35 35 35
44 44 44 44 44 41 44 43 44 43 44 44 44 43 42 42 42 42 41 40 40 40 40 40 39 39 38 38 37 36 37 36 37 37 37 37 36 36 35 35 35 35 36 36 36 36 38 39 39 39 38 39 39 38 38 38 38 38 39 38 36 37 38 38 37 36 36 36 34 34 34 35 34 34
MSLP
1022.59 1022.63 1022.67 1022.67 1022.79 1022.87 1022.87 1022.79 1022.79 1022.75 1022.63 1022.55 1022.51 1022.27 1022.31 1022.35 1022.83 1023.39 1023.83 1024.23 1024.15 1024.35 1024.23 1024.11 1024.39 1024.27 1024.27 1024.27 1024.19 1024.07 1024.07 1024.19 1023.87 1023.71 1023.79 1023.95 1024.19 1024.39 1024.07 1023.95 1023.83 1023.71 1023.59 1023.43 1023.31 1023.11 1022.95 1022.79 1022.67 1022.55 1022.39 1022.23 1022.11 1021.91 1021.79 1021.63 1021.59 1021.55 1021.47 1021.39 1021.31 1021.23 1021.15 1021.07 1020.99 1020.87 1020.75 1020.55 1020.35 1020.35 1020.39 1020.43 1020.39 1020.35
1022.75 1022.79 1022.79 1022.79 1022.91 1023.03 1022.95 1023.03 1023.07 1022.99 1022.91 1022.75 1022.63 1022.59 1022.51 1022.35 1022.63 1022.95 1023.47 1024.39 1024.27 1024.39 1024.51 1024.43 1024.47 1024.47 1024.43 1024.35 1024.35 1024.23 1024.23 1024.43 1024.03 1023.87 1023.83 1023.95 1024.23 1024.43 1024.23 1024.15 1024.07 1023.95 1023.79 1023.71 1023.55 1023.39 1023.23 1023.03 1022.87 1022.67 1022.55 1022.43 1022.31 1022.19 1021.99 1021.79 1021.63 1021.47 1021.35 1021.31 1021.19 1021.07 1020.95 1020.83 1020.75 1020.71 1020.67 1020.51 1020.35 1020.31 1020.31 1020.31 1020.35 1020.35
1022.99 1023.03 1023.07 1022.99 1023.07 1023.11 1023.15 1023.19 1023.19 1023.19 1023.11 1023.03 1022.95 1022.95 1022.83 1022.91 1022.91 1022.99 1023.23 1023.95 1024.71 1024.55 1024.67 1024.79 1024.75 1024.71 1024.63 1024.47 1024.47 1024.47 1024.39 1024.47 1024.23 1024.03 1023.95 1023.95 1024.15 1024.07 1024.23 1024.27 1024.23 1024.15 1023.99 1023.91 1023.75 1023.63 1023.47 1023.31 1023.11 1022.91 1022.75 1022.63 1022.51 1022.39 1022.19 1022.03 1021.87 1021.67 1021.47 1021.31 1021.15 1020.99 1020.79 1020.63 1020.55 1020.47 1020.47 1020.39 1020.27 1020.15 1020.15 1020.19 1020.15 1020.23
1023.11 1023.15 1023.19 1023.15 1023.15 1023.23 1023.11 1023.15 1023.19 1023.23 1023.27 1023.19 1023.11 1023.11 1023.15 1023.23 1023.23 1023.19 1023.23 1023.71 1024.59 1024.83 1024.75 1024.83 1024.87 1024.87 1024.87 1024.67 1024.47 1024.47 1024.39 1024.51 1024.35 1024.07 1024.07 1024.11 1023.91 1023.63 1023.79 1024.31 1024.35 1024.27 1024.15 1024.03 1023.91 1023.75 1023.63 1023.47 1023.31 1023.15 1022.95 1022.83 1022.71 1022.63 1022.47 1022.27 1022.11 1021.95 1021.71 1021.47 1021.23 1021.03 1020.79 1020.63 1020.47 1020.31 1020.19 1020.11 1020.11 1020.03 1019.99 1019.95 1019.95 1019.99
1023.15 1023.11 1023.15 1023.27 1023.31 1023.27 1023.15 1023.15 1023.15 1023.15 1023.27 1023.31 1023.31 1023.27 1023.27 1023.39 1023.39 1023.35 1023.51 1023.87 1024.51 1024.95 1024.99 1024.87 1024.87 1024.99 1024.83 1024.71 1024.67 1024.59 1024.55 1024.47 1024.31 1024.19 1024.15 1024.03 1023.87 1023.79 1023.67 1023.91 1024.39 1024.39 1024.27 1024.11 1023.95 1023.79 1023.67 1023.51 1023.39 1023.23 1023.15 1022.99 1022.87 1022.75 1022.63 1022.47 1022.35 1022.19 1021.99 1021.71 1021.39 1021.07 1020.83 1020.63 1020.55 1020.43 1020.27 1020.07 1019.95 1019.95 1019.91 1019.83 1019.79 1019.79
1023.15 1023.19 1023.15 1023.23 1023.35 1023.31 1023.19 1023.19 1022.99 1023.07 1023.15 1023.11 1023.19 1023.27 1023.23 1023.35 1023.55 1023.43 1023.35 1023.71 1023.95 1024.63 1024.87 1024.87 1024.87 1024.91 1024.91 1024.67 1024.83 1024.83 1024.79 1024.71 1024.43 1024.19 1024.11 1024.03 1023.91 1023.87 1023.71 1023.59 1024.15 1024.43 1024.27 1024.15 1024.03 1023.83 1023.67 1023.51 1023.39 1023.23 1023.11 1022.99 1022.87 1022.71 1022.59 1022.47 1022.35 1022.23 1022.15 1021.95 1021.67 1021.35 1021.03 1020.79 1020.59 1020.43 1020.31 1020.15 1019.99 1019.87 1019.79 1019.67 1019.63 1019.63
1023.07 1023.19 1023.19 1023.19 1023.31 1023.43 1023.35 1023.31 1023.15 1023.19 1023.11 1022.99 1023.07 1023.31 1023.31 1023.47 1023.51 1023.43 1023.35 1023.51 1023.91 1024.23 1024.71 1024.79 1024.67 1024.87 1024.99 1024.83 1024.71 1024.71 1024.79 1024.75 1024.47 1024.27 1024.27 1024.15 1024.07 1023.95 1023.87 1023.67 1023.79 1024.35 1024.27 1024.15 1024.03 1023.87 1023.67 1023.51 1023.35 1023.19 1023.07 1022.95 1022.87 1022.71 1022.59 1022.43 1022.31 1022.19 1022.11 1021.95 1021.75 1021.55 1021.31 1020.99 1020.67 1020.43 1020.23 1020.11 1019.99 1019.87 1019.75 1019.67 1019.55 1019.47
1022.99 1022.99 1023.11 1023.15 1023.23 1023.31 1023.31 1023.27 1023.31 1023.31 1023.27 1023.19 1023.23 1023.47 1023.51 1023.59 1023.67 1023.67 1023.63 1023.43 1023.55 1023.91 1024.23 1024.67 1024.39 1024.63 1024.67 1024.67 1024.67 1024.71 1024.67 1024.67 1024.51 1024.35 1024.27 1024.19 1024.11 1024.03 1023.91 1023.79 1023.71 1024.11 1024.23 1024.11 1023.99 1023.87 1023.71 1023.55 1023.35 1023.15 1023.03 1022.91 1022.79 1022.67 1022.55 1022.39 1022.31 1022.23 1022.15 1021.99 1021.83 1021.59 1021.39 1021.11 1020.79 1020.47 1020.19 1019.99 1019.87 1019.75 1019.67 1019.63 1019.51 1019.39
1022.79 1022.87 1022.91 1022.91 1023.07 1023.23 1023.23 1023.31 1023.27 1023.27 1023.35 1023.15 1023.23 1023.31 1023.35 1023.39 1023.63 1023.71 1023.59 1023.51 1023.51 1023.67 1023.95 1024.55 1024.71 1024.59 1024.47 1024.55 1024.63 1024.59 1024.35 1024.27 1024.27 1024.27 1024.27 1024.23 1024.15 1024.15 1024.07 1023.83 1023.87 1024.03 1024.03 1023.91 1023.83 1023.75 1023.59 1023.47 1023.35 1023.15 1022.99 1022.87 1022.79 1022.67 1022.51 1022.39 1022.27 1022.23 1022.15 1022.03 1021.87 1021.67 1021.43 1021.11 1020.83 1020.55 1020.31 1020.03 1019.79 1019.63 1019.51 1019.51 1019.47 1019.31
1022.71 1022.71 1022.71 1022.71 1022.83 1022.99 1023.03 1023.03 1023.11 1023.19 1023.23 1023.27 1023.23 1023.23 1023.23 1023.27 1023.59 1023.67 1023.71 1023.63 1023.55 1023.59 1023.83 1023.99 1024.39 1024.63 1024.39 1024.27 1024.47 1024.51 1024.55 1024.47 1024.27 1024.11 1024.03 1024.11 1024.15 1024.23 1024.07 1023.87 1023.87 1023.83 1023.79 1023.71 1023.63 1023.51 1023.31 1023.23 1023.19 1023.07 1022.91 1022.79 1022.71 1022.59 1022.47 1022.35 1022.23 1022.15 1022.11 1022.03 1021.87 1021.63 1021.39 1021.11 1020.83 1020.55 1020.31 1020.11 1019.87 1019.59 1019.39 1019.31 1019.31 1019.23
1022.51 1022.55 1022.51 1022.51 1022.59 1022.67 1022.67 1022.75 1022.87 1023.03 1023.19 1023.27 1023.23 1023.27 1023.43 1023.35 1023.51 1023.59 1023.47 1023.43 1023.51 1023.63 1023.83 1024.03 1024.07 1024.15 1024.47 1024.47 1024.19 1024.23 1024.43 1024.31 1024.23 1024.31 1024.03 1023.79 1023.75 1023.99 1024.07 1023.83 1023.67 1023.75 1023.71 1023.59 1023.63 1023.55 1023.47 1023.31 1023.03 1022.91 1022.79 1022.67 1022.59 1022.47 1022.35 1022.19 1022.15 1022.07 1021.99 1021.91 1021.79 1021.55 1021.27 1021.03 1020.79 1020.51 1020.27 1020.11 1019.95 1019.75 1019.51 1019.31 1019.15 1019.11
1022.23 1022.27 1022.31 1022.35 1022.35 1022.35 1022.31 1022.35 1022.47 1022.71 1022.87 1023.03 1023.07 1023.19 1023.31 1023.39 1023.51 1023.47 1023.55 1023.51 1023.43 1023.55 1023.63 1023.63 1023.83 1023.95 1024.03 1024.27 1024.43 1024.35 1024.23 1024.03 1024.03 1024.43 1024.51 1024.15 1023.91 1023.83 1023.79 1023.63 1023.71 1023.71 1023.67 1023.47 1023.23 1023.11 1023.11 1022.87 1022.75 1022.63 1022.43 1022.39 1022.47 1022.31 1022.15 1021.95 1021.95 1021.91 1021.91 1021.83 1021.67 1021.43 1021.15 1020.91 1020.71 1020.47 1020.27 1020.07 1019.91 1019.79 1019.63 1019.43 1019.15 1018.95
1021.91 1021.95 1021.99 1022.03 1022.07 1022.19 1022.27 1022.35 1022.39 1022.39 1022.47 1022.71 1022.91 1023.15 1023.27 1023.35 1023.43 1023.43 1023.35 1023.27 1023.31 1023.39 1023.43 1023.63 1023.71 1023.71 1023.67 1023.79 1023.99 1024.03 1024.27 1024.47 1024.67 1024.75 1024.67 1024.35 1024.11 1023.95 1023.63 1023.27 1023.51 1023.67 1023.63 1023.39 1023.19 1022.91 1023.03 1022.91 1022.67 1022.39 1022.15 1022.11 1022.23 1021.95 1021.95 1021.67 1021.75 1021.79 1021.83 1021.79 1021.63 1021.35 1021.11 1020.83 1020.63 1020.43 1020.23 1020.07 1019.87 1019.75 1019.59 1019.47 1019.31 1019.11
1021.59 1021.63 1021.71 1021.79 1022.07 1022.31 1022.51 1022.63 1022.71 1022.75 1022.71 1022.51 1022.35 1022.67 1023.11 1023.27 1023.35 1023.47 1023.43 1023.31 1023.15 1023.15 1023.23 1023.31 1023.47 1023.51 1023.47 1023.71 1024.11 1024.27 1024.63 1024.79 1024.71 1024.63 1024.63 1024.47 1024.19 1024.03 1023.71 1023.27 1023.27 1023.71 1023.67 1023.47 1023.15 1022.87 1022.79 1022.95 1022.51 1022.27 1022.15 1022.11 1022.11 1021.79 1021.55 1021.63 1021.87 1021.83 1021.79 1021.67 1021.47 1021.27 1021.11 1020.91 1020.67 1020.47 1020.27 1020.07 1019.87 1019.71 1019.59 1019.47 1019.35 1019.23
1021.39 1021.35 1021.43 1021.55 1021.83 1022.23 1022.47 1022.59 1022.71 1022.75 1022.79 1022.79 1022.75 1022.63 1022.79 1022.91 1022.99 1023.19 1023.31 1023.23 1023.27 1023.27 1023.35 1023.51 1023.75 1023.79 1023.71 1023.91 1024.11 1024.23 1024.43 1024.71 1024.75 1024.71 1024.71 1024.55 1024.35 1024.27 1024.15 1023.67 1023.23 1023.35 1023.75 1023.63 1023.31 1022.75 1022.67 1022.75 1022.43 1022.23 1022.11 1022.07 1021.99 1021.83 1021.63 1021.87 1021.83 1021.83 1021.71 1021.59 1021.39 1021.19 1021.03 1020.83 1020.71 1020.51 1020.35 1020.15 1019.99 1019.83 1019.67 1019.55 1019.43 1019.35
1021.43 1021.43 1021.43 1021.47 1021.55 1021.67 1021.79 1021.87 1022.11 1022.55 1022.79 1022.95 1023.19 1023.15 1023.15 1023.23 1023.59 1023.71 1023.35 1023.23 1023.43 1023.43 1023.43 1024.03 1024.07 1023.99 1023.83 1023.79 1024.07 1024.15 1024.43 1024.47 1024.67 1024.71 1024.67 1024.63 1024.63 1024.51 1024.31 1023.99 1023.79 1023.43 1023.91 1023.87 1023.39 1022.79 1022.39 1022.47 1022.43 1022.23 1022.03 1021.95 1021.91 1021.87 1021.87 1021.79 1021.71 1021.67 1021.59 1021.47 1021.35 1021.15 1020.99 1020.83 1020.67 1020.51 1020.31 1020.19 1020.03 1019.87 1019.75 1019.63 1019.51 1019.39
1021.55 1021.51 1021.47 1021.47 1021.51 1021.51 1021.95 1022.07 1021.83 1021.91 1022.39 1023.19 1023.47 1023.59 1023.87 1024.03 1024.11 1024.03 1024.03 1023.99 1023.63 1023.23 1023.35 1023.59 1023.87 1023.91 1023.91 1024.07 1024.11 1024.55 1024.75 1024.99 1024.75 1024.59 1024.35 1024.39 1024.55 1024.47 1024.35 1023.95 1023.79 1023.71 1023.99 1023.95 1023.35 1022.79 1022.31 1022.23 1022.27 1022.03 1021.79 1021.79 1021.79 1021.67 1021.51 1021.55 1021.51 1021.51 1021.47 1021.35 1021.19 1021.11 1020.95 1020.79 1020.63 1020.47 1020.31 1020.15 1019.99 1019.83 1019.75 1019.63 1019.51 1019.43
1021.75 1021.75 1021.67 1021.55 1021.51 1021.59 1021.75 1021.75 1021.87 1021.95 1022.07 1022.63 1023.23 1023.47 1023.39 1023.55 1023.95 1023.99 1024.11 1024.07 1024.07 1023.87 1023.59 1023.63 1023.71 1024.23 1024.39 1024.23 1024.59 1024.99 1024.99 1024.91 1024.71 1024.67 1024.55 1024.59 1024.55 1024.51 1024.31 1024.23 1024.15 1023.83 1023.87 1023.83 1023.59 1022.99 1022.07 1021.91 1022.15 1021.95 1021.59 1021.63 1021.59 1021.39 1021.35 1021.39 1021.31 1021.35 1021.27 1021.19 1021.07 1020.95 1020.87 1020.75 1020.59 1020.47 1020.31 1020.11 1019.95 1019.79 1019.67 1019.55 1019.47 1019.39
1022.23 1022.07 1021.99 1021.87 1021.79 1021.91 1021.99 1022.11 1022.23 1022.11 1022.19 1022.35 1022.59 1022.83 1023.23 1023.59 1023.87 1024.11 1024.11 1024.07 1023.99 1024.03 1024.07 1024.03 1024.19 1024.51 1024.67 1024.79 1024.95 1024.99 1025.03 1024.99 1024.95 1024.99 1024.95 1024.91 1024.83 1024.67 1024.43 1024.03 1023.71 1023.55 1023.43 1023.55 1023.55 1023.03 1022.15 1022.03 1022.03 1021.71 1021.55 1021.43 1021.31 1021.07 1020.99 1020.99 1021.11 1021.15 1021.11 1021.03 1020.87 1020.71 1020.63 1020.55 1020.51 1020.39 1020.23 1020.11 1019.91 1019.75 1019.63 1019.51 1019.39 1019.31
1022.39 1022.27 1022.19 1022.03 1022.07 1022.23 1022.27 1022.83 1022.79 1022.47 1022.27 1022.35 1022.59 1023.03 1023.47 1023.95 1024.43 1024.87 1025.19 1025.07 1024.75 1024.55 1024.47 1024.51 1024.59 1024.75 1025.11 1025.27 1025.19 1025.27 1025.15 1025.03 1025.03 1025.03 1024.91 1024.75 1024.59 1024.35 1023.91 1023.47 1022.99 1023.07 1022.87 1023.27 1023.35 1022.91 1022.23 1021.95 1021.91 1021.59 1021.43 1021.27 1021.03 1020.83 1020.71 1020.59 1020.83 1020.87 1020.87 1020.75 1020.67 1020.55 1020.43 1020.39 1020.27 1020.23 1020.11 1019.99 1019.87 1019.71 1019.63 1019.51 1019.35 1019.23
1022.59 1022.55 1022.43 1022.31 1022.31 1022.39 1022.67 1023.19 1022.99 1022.91 1022.59 1022.47 1022.75 1023.15 1023.67 1024.03 1024.19 1024.63 1025.07 1025.27 1025.27 1025.23 1025.23 1025.27 1025.31 1025.43 1025.55 1025.59 1025.67 1025.71 1025.75 1025.51 1025.35 1024.99 1024.71 1024.23 1024.15 1024.23 1023.87 1023.27 1023.03 1022.75 1022.71 1022.83 1022.91 1022.75 1022.39 1021.87 1021.79 1021.55 1021.31 1021.15 1020.99 1020.71 1020.47 1020.23 1020.35 1020.47 1020.47 1020.39 1020.31 1020.19 1020.11 1020.07 1020.03 1019.99 1019.91 1019.83 1019.71 1019.59 1019.51 1019.47 1019.35 1019.23
1022.67 1023.11 1023.11 1022.67 1022.47 1022.55 1023.07 1023.39 1023.19 1023.11 1022.83 1022.71 1022.99 1023.35 1023.63 1023.87 1024.15 1024.71 1025.03 1025.11 1025.39 1025.55 1025.51 1025.55 1025.63 1025.63 1025.63 1025.67 1025.71 1025.71 1025.75 1025.75 1025.59 1024.99 1024.67 1024.47 1024.55 1024.23 1023.83 1023.47 1023.11 1022.79 1022.71 1022.43 1022.59 1022.71 1022.15 1021.83 1021.71 1021.51 1021.07 1020.95 1020.55 1020.27 1020.07 1020.07 1020.03 1020.07 1019.95 1019.91 1019.87 1019.87 1019.79 1019.75 1019.71 1019.67 1019.63 1019.59 1019.51 1019.39 1019.35 1019.27 1019.31 1018.95
1022.67 1023.03 1023.39 1023.39 1023.15 1023.23 1023.55 1023.51 1023.39 1023.23 1022.91 1022.83 1023.03 1023.19 1023.35 1023.67 1024.11 1024.55 1024.79 1024.91 1024.99 1025.07 1025.11 1025.23 1025.39 1025.39 1025.47 1025.39 1025.15 1025.19 1025.55 1025.59 1025.43 1025.03 1024.83 1024.59 1024.43 1024.15 1023.79 1023.59 1023.31 1022.87 1022.15 1022.19 1022.75 1022.75 1021.87 1021.91 1021.51 1021.47 1020.99 1020.67 1020.11 1020.03 1020.03 1019.99 1019.83 1019.75 1019.67 1019.47 1019.39 1019.35 1019.43 1019.35 1019.31 1019.31 1019.27 1019.19 1019.15 1019.15 1019.15 1019.07 1019.15 1018.63
1022.87 1023.03 1023.27 1023.75 1023.95 1023.75 1023.71 1023.63 1023.55 1023.47 1023.27 1023.07 1023.19 1023.23 1023.31 1023.67 1024.31 1024.63 1024.79 1025.03 1024.99 1025.11 1025.15 1025.11 1025.19 1025.11 1025.07 1024.99 1024.95 1024.83 1024.83 1024.87 1024.79 1024.75 1024.63 1024.47 1024.35 1024.15 1023.83 1023.51 1023.35 1023.03 1022.43 1022.19 1022.51 1022.59 1022.03 1021.91 1021.51 1021.27 1021.23 1020.99 1020.51 1019.87 1019.83 1019.71 1019.47 1019.19 1019.31 1019.23 1019.11 1018.95 1018.95 1018.91 1018.75 1018.71 1018.71 1018.71 1018.71 1018.75 1018.75 1018.79 1018.87 1018.43
1022.63 1022.95 1023.35 1023.79 1024.35 1024.03 1023.99 1023.91 1023.91 1023.87 1023.83 1023.71 1023.59 1023.63 1023.79 1024.19 1024.59 1024.79 1024.75 1025.43 1025.51 1025.11 1025.19 1025.11 1025.03 1024.79 1024.67 1024.63 1024.55 1024.47 1024.43 1024.39 1024.35 1024.35 1024.35 1024.31 1024.19 1024.03 1023.79 1023.47 1023.11 1022.75 1022.35 1022.23 1022.51 1022.63 1022.23 1021.79 1021.39 1021.23 1020.67 1020.11 1019.67 1019.51 1019.19 1019.03 1018.91 1019.15 1019.23 1019.23 1019.11 1018.75 1018.47 1018.19 1018.07 1017.91 1017.87 1018.07 1018.11 1018.19 1018.31 1018.39 1018.51 1018.43
1022.67 1023.03 1023.39 1023.87 1024.55 1024.39 1024.31 1024.35 1024.39 1024.43 1024.39 1024.39 1024.23 1024.99 1025.19 1025.31 1025.23 1025.03 1024.95 1024.95 1024.95 1024.91 1024.87 1024.71 1024.59 1024.47 1024.39 1024.31 1024.27 1024.27 1024.23 1024.15 1024.15 1024.19 1024.07 1024.03 1023.95 1023.83 1023.67 1023.47 1023.27 1022.91 1022.47 1022.23 1022.63 1022.67 1022.39 1021.79 1021.35 1020.91 1020.39 1020.23 1019.35 1019.19 1018.87 1018.75 1018.83 1018.91 1018.99 1018.95 1018.87 1018.71 1018.55 1018.31 1018.03 1017.79 1017.67 1017.43 1017.31 1017.39 1017.55 1017.83 1017.99 1018.15
1022.95 1023.31 1023.79 1024.47 1024.79 1024.59 1024.63 1024.67 1024.75 1024.79 1024.83 1024.79 1025.27 1025.55 1025.51 1025.51 1025.47 1025.19 1024.83 1024.99 1024.91 1024.75 1024.75 1024.75 1024.59 1024.47 1024.35 1024.27 1024.19 1024.15 1024.11 1024.03 1024.07 1024.07 1023.95 1023.91 1023.87 1023.75 1023.59 1023.47 1023.23 1022.91 1022.51 1022.39 1022.31 1022.23 1022.15 1021.63 1021.35 1021.23 1020.83 1020.43 1019.99 1019.47 1019.47 1019.23 1018.75 1018.63 1018.79 1018.91 1018.79 1018.59 1018.35 1018.03 1017.71 1017.55 1017.35 1017.15 1017.03 1017.11 1017.35 1017.47 1017.59 1017.67
1023.03 1023.39 1023.79 1024.47 1024.87 1024.83 1024.91 1024.99 1025.07 1025.11 1025.11 1025.39 1025.71 1025.67 1025.67 1025.63 1025.39 1024.95 1024.91 1024.83 1024.91 1024.95 1024.79 1024.67 1024.47 1024.35 1024.31 1024.31 1024.23 1024.15 1024.11 1024.15 1024.11 1024.07 1024.03 1023.79 1023.51 1023.27 1023.07 1022.95 1022.83 1022.67 1022.39 1022.11 1021.83 1021.67 1021.55 1021.35 1021.11 1020.99 1020.83 1020.63 1020.35 1019.99 1019.59 1019.11 1018.99 1018.91 1018.83 1018.63 1018.59 1018.43 1018.15 1017.75 1017.39 1017.27 1017.15 1016.99 1016.87 1016.67 1016.55 1016.59 1016.83 1017.11
1023.31 1023.95 1024.47 1024.79 1024.87 1024.95 1025.03 1025.11 1025.19 1025.39 1025.67 1025.71 1025.71 1025.71 1025.67 1025.43 1024.91 1024.99 1024.95 1024.95 1024.95 1024.79 1024.71 1024.63 1024.55 1024.47 1024.43 1024.43 1024.47 1024.47 1024.51 1024.39 1024.23 1023.83 1023.39 1023.27 1023.27 1023.23 1023.15 1023.03 1022.87 1022.71 1022.55 1022.27 1022.03 1021.75 1021.47 1021.23 1021.03 1020.87 1020.75 1020.51 1020.31 1019.83 1019.67 1019.15 1019.07 1018.87 1018.87 1018.79 1018.59 1018.15 1017.87 1017.55 1017.23 1017.03 1016.91 1016.83 1016.67 1016.47 1016.31 1016.27 1016.23 1016.35
1024.19 1024.43 1024.67 1024.91 1025.03 1024.99 1024.95 1024.71 1024.79 1025.07 1025.63 1025.83 1025.79 1025.79 1025.59 1025.15 1025.15 1025.15 1025.07 1025.03 1025.03 1024.87 1024.79 1024.83 1024.79 1024.59 1024.59 1024.55 1024.47 1024.51 1024.39 1024.15 1023.63 1023.43 1023.55 1023.59 1023.31 1023.15 1022.91 1022.71 1022.47 1022.27 1022.03 1021.79 1021.59 1021.43 1021.23 1021.07 1020.91 1020.83 1020.67 1020.39 1020.23 1019.95 1019.59 1019.31 1019.03 1018.83 1018.75 1018.75 1018.39 1018.23 1018.07 1017.79 1017.35 1016.91 1016.71 1016.55 1016.39 1016.31 1016.23 1016.19 1016.19 1016.23
1024.27 1024.59 1024.59 1024.75 1024.99 1025.11 1025.27 1025.27 1025.47 1025.51 1025.67 1025.43 1025.35 1025.27 1025.35 1025.39 1025.39 1025.39 1025.35 1025.35 1025.27 1025.15 1024.99 1024.87 1024.79 1024.63 1024.35 1024.27 1024.43 1024.35 1024.27 1024.15 1023.87 1023.71 1023.71 1023.59 1023.27 1023.11 1022.83 1022.71 1022.39 1022.07 1021.67 1021.43 1021.19 1021.07 1020.99 1020.87 1020.75 1020.63 1020.55 1020.23 1019.99 1019.71 1019.43 1019.27 1019.03 1018.87 1018.63 1018.59 1018.59 1018.75 1018.03 1017.63 1017.19 1016.83 1016.55 1016.35 1016.23 1016.23 1016.35 1016.39 1016.31 1016.31
1023.99 1024.55 1025.07 1025.07 1025.03 1025.07 1025.03 1025.03 1024.99 1025.11 1025.23 1025.39 1025.39 1025.35 1025.39 1025.47 1025.63 1025.79 1025.91 1025.79 1025.27 1025.07 1025.03 1024.95 1024.83 1024.39 1024.43 1024.51 1024.35 1024.39 1024.31 1024.07 1023.79 1023.59 1023.47 1023.31 1023.07 1022.87 1022.71 1022.63 1022.27 1021.83 1021.43 1021.15 1020.87 1020.71 1020.67 1020.55 1020.47 1020.31 1020.19 1020.03 1019.91 1019.59 1019.47 1019.27 1019.07 1018.79 1018.63 1018.47 1018.35 1018.11 1017.95 1017.71 1017.31 1016.95 1016.67 1016.47 1016.35 1016.43 1016.39 1016.27 1016.19 1016.03
1023.99 1024.27 1024.43 1024.63 1024.75 1024.79 1024.87 1024.91 1024.91 1024.99 1025.11 1025.31 1025.51 1025.71 1025.47 1025.35 1025.31 1025.23 1025.07 1025.07 1025.03 1025.03 1025.07 1024.95 1024.91 1024.67 1024.47 1024.39 1024.31 1024.15 1023.95 1023.67 1023.43 1023.27 1023.19 1022.95 1022.83 1022.55 1022.39 1022.23 1021.83 1021.51 1021.19 1020.87 1020.63 1020.39 1020.27 1020.11 1020.03 1019.99 1019.87 1019.67 1019.47 1019.39 1019.31 1019.15 1018.71 1018.51 1018.47 1018.19 1018.11 1017.83 1017.51 1017.23 1016.99 1016.71 1016.43 1016.31 1016.27 1016.27 1016.23 1016.07 1015.91 1015.75
1023.79 1024.19 1024.31 1024.51 1024.55 1024.71 1024.67 1024.71 1024.83 1024.95 1025.07 1025.15 1025.19 1025.35 1025.67 1025.51 1025.27 1025.31 1025.23 1025.11 1025.03 1025.11 1025.15 1025.03 1024.83 1024.63 1024.71 1024.63 1024.35 1024.07 1023.83 1023.59 1023.35 1023.07 1023.07 1022.79 1022.51 1022.35 1022.11 1021.79 1021.43 1021.15 1021.07 1020.79 1020.47 1020.15 1019.91 1019.83 1019.71 1019.59 1019.47 1019.31 1019.15 1019.03 1018.99 1018.95 1018.59 1018.19 1017.95 1017.87 1017.71 1017.43 1017.03 1016.75 1016.51 1016.35 1016.23 1016.03 1015.99 1015.95 1015.87 1015.67 1015.43 1015.43
1023.79 1023.99 1024.19 1024.43 1024.55 1024.59 1024.59 1024.63 1024.75 1025.03 1025.11 1025.11 1025.11 1025.19 1025.27 1025.19 1025.31 1025.35 1025.23 1025.15 1025.15 1025.15 1024.99 1024.91 1024.59 1024.51 1024.55 1024.43 1024.19 1024.07 1023.87 1023.67 1023.31 1022.87 1022.59 1022.35 1022.19 1021.95 1021.75 1021.55 1021.31 1021.07 1020.79 1020.47 1020.23 1019.91 1019.79 1019.67 1019.59 1019.47 1019.27 1018.99 1018.71 1018.23 1018.19 1018.19 1018.07 1017.67 1017.47 1017.27 1017.11 1016.87 1016.55 1016.35 1016.19 1015.95 1015.87 1015.83 1016.03 1016.19 1015.87 1015.47 1015.23 1015.19
1023.63 1023.71 1023.95 1024.19 1024.35 1024.55 1024.55 1024.91 1025.19 1025.27 1025.23 1025.27 1025.31 1025.23 1025.11 1025.03 1025.03 1025.19 1025.07 1025.27 1025.27 1025.07 1024.91 1024.63 1024.35 1024.31 1024.27 1024.15 1024.03 1023.91 1023.75 1023.55 1023.23 1022.83 1022.47 1022.19 1022.03 1021.87 1021.67 1021.51 1021.23 1020.87 1020.59 1020.31 1020.03 1019.79 1019.71 1019.59 1019.47 1019.51 1019.39 1019.07 1018.83 1018.39 1017.67 1017.31 1017.43 1017.39 1017.31 1017.03 1016.75 1016.55 1016.27 1016.15 1016.27 1016.39 1016.27 1016.15 1016.07 1016.07 1015.87 1015.55 1015.31 1015.31
1023.55 1023.71 1023.95 1024.11 1024.39 1024.51 1024.75 1025.11 1025.19 1025.19 1025.23 1025.31 1025.35 1025.31 1025.31 1025.19 1025.07 1025.03 1025.11 1025.39 1025.19 1024.99 1024.91 1024.75 1024.47 1024.31 1024.19 1024.03 1023.87 1023.71 1023.47 1023.27 1022.91 1022.55 1022.27 1021.99 1021.83 1021.67 1021.43 1020.99 1020.83 1020.67 1020.43 1020.07 1019.83 1019.63 1019.47 1019.35 1019.27 1019.39 1019.39 1019.15 1018.87 1018.27 1017.43 1017.03 1017.03 1017.11 1016.99 1016.79 1016.59 1016.31 1016.51 1016.79 1016.71 1016.43 1016.31 1016.35 1016.31 1016.23 1016.03 1015.83 1015.59 1015.51
1023.55 1023.79 1024.03 1024.23 1024.47 1024.67 1024.87 1025.03 1025.15 1025.19 1025.23 1025.27 1025.31 1025.27 1025.23 1025.07 1024.95 1024.91 1024.95 1024.87 1024.83 1024.67 1024.43 1024.15 1023.91 1023.83 1023.75 1023.75 1023.75 1023.55 1023.31 1022.99 1022.67 1022.31 1021.99 1021.79 1021.63 1021.39 1021.19 1021.07 1020.79 1020.51 1020.15 1019.75 1019.51 1019.27 1019.11 1019.07 1019.11 1019.11 1019.15 1018.95 1018.55 1017.99 1017.55 1016.87 1016.83 1016.67 1016.75 1016.79 1016.71 1016.63 1016.75 1016.71 1016.55 1016.31 1016.11 1016.11 1016.19 1016.07 1016.11 1015.87 1015.67 1015.63
1023.51 1023.83 1024.11 1024.31 1024.59 1024.75 1024.99 1025.03 1025.07 1025.15 1025.23 1025.19 1025.27 1025.27 1025.19 1025.03 1024.95 1024.95 1024.87 1024.79 1024.71 1024.59 1024.27 1023.95 1023.79 1023.83 1023.95 1023.79 1023.59 1023.39 1023.11 1022.79 1022.55 1022.19 1021.87 1021.55 1021.39 1021.31 1021.11 1020.83 1020.55 1020.15 1019.95 1019.59 1019.15 1018.79 1018.63 1018.67 1018.71 1018.71 1018.63 1018.55 1018.27 1017.83 1017.59 1017.51 1017.27 1016.83 1016.75 1016.83 1016.71 1016.59 1016.31 1016.31 1016.19 1016.03 1015.99 1015.91 1015.95 1016.31 1016.35 1016.39 1016.31 1016.15
1023.63 1023.87 1024.11 1024.35 1024.63 1024.71 1024.87 1024.99 1025.07 1025.15 1025.27 1025.31 1025.23 1025.15 1025.15 1025.11 1025.03 1024.95 1024.83 1024.71 1024.55 1024.47 1024.15 1023.87 1023.83 1023.87 1023.71 1023.63 1023.47 1023.19 1022.95 1022.67 1022.35 1021.95 1021.71 1021.43 1021.23 1021.07 1020.83 1020.55 1020.31 1020.07 1019.83 1019.39 1018.99 1018.43 1018.15 1018.03 1018.11 1018.11 1018.03 1017.91 1017.75 1017.63 1017.51 1017.43 1017.19 1016.99 1016.79 1016.47 1016.43 1016.43 1016.15 1016.03 1015.95 1015.83 1015.71 1015.71 1015.87 1015.99 1015.91 1016.11 1015.95 1016.07
1023.83 1024.07 1024.31 1024.51 1024.71 1024.75 1024.83 1024.91 1024.95 1025.15 1025.23 1025.23 1025.23 1025.31 1025.23 1025.07 1025.11 1024.95 1024.87 1024.83 1024.71 1024.39 1023.99 1023.79 1023.79 1023.79 1023.63 1023.51 1023.35 1023.11 1022.79 1022.39 1022.03 1021.75 1021.51 1021.31 1021.03 1020.79 1020.51 1020.39 1020.03 1019.71 1019.55 1019.11 1018.67 1018.27 1017.83 1017.47 1017.47 1017.55 1017.59 1017.51 1017.43 1017.51 1017.51 1017.39 1017.07 1016.47 1016.19 1015.67 1015.71 1015.99 1016.11 1016.11 1015.91 1015.79 1015.75 1015.75 1015.83 1015.75 1015.75 1015.83 1015.75 1015.91
1023.91 1024.15 1024.39 1024.47 1024.55 1024.67 1024.79 1024.91 1024.99 1025.11 1025.23 1025.27 1025.23 1025.15 1025.11 1025.11 1024.91 1025.23 1025.07 1024.71 1024.67 1024.47 1024.03 1023.75 1023.67 1023.63 1023.47 1023.35 1023.11 1022.83 1022.55 1022.27 1021.95 1021.67 1021.43 1021.19 1020.83 1020.51 1020.23 1019.91 1019.63 1019.35 1019.27 1018.95 1018.47 1017.99 1017.51 1017.31 1017.31 1017.31 1017.31 1017.31 1017.27 1017.43 1017.15 1016.79 1016.43 1016.07 1015.75 1015.43 1015.55 1016.07 1016.19 1016.19 1016.07 1015.95 1015.75 1015.59 1015.67 1015.83 1015.91 1015.91 1015.75 1015.51
1023.99 1024.19 1024.47 1024.55 1024.59 1024.71 1024.83 1024.95 1024.99 1025.11 1025.19 1025.19 1025.11 1025.15 1025.11 1024.95 1024.63 1024.51 1024.23 1024.11 1024.19 1023.99 1023.83 1023.79 1023.67 1023.59 1023.43 1023.19 1022.91 1022.63 1022.35 1021.99 1021.71 1021.47 1021.27 1020.99 1020.67 1020.43 1020.11 1019.75 1019.47 1019.23 1018.99 1018.59 1018.11 1017.71 1017.35 1017.19 1017.11 1017.03 1016.91 1016.91 1016.87 1016.91 1016.75 1016.27 1016.03 1015.79 1015.55 1015.35 1015.19 1015.39 1015.83 1016.15 1016.03 1015.91 1015.87 1015.83 1015.75 1015.67 1015.59 1015.51 1015.47 1015.15
1024.07 1024.19 1024.31 1024.51 1024.71 1024.83 1024.87 1024.91 1024.99 1025.19 1025.23 1025.07 1025.03 1025.03 1024.91 1024.79 1024.55 1024.47 1024.27 1024.11 1024.15 1024.03 1023.95 1023.79 1023.55 1023.39 1023.27 1023.07 1022.79 1022.47 1022.07 1021.75 1021.51 1021.31 1021.03 1020.71 1020.47 1020.23 1019.99 1019.67 1019.35 1018.99 1018.63 1018.27 1017.87 1017.43 1017.07 1016.87 1016.75 1016.75 1016.71 1016.43 1016.27 1016.27 1016.15 1016.03 1015.79 1015.47 1015.31 1015.23 1015.47 1015.71 1015.87 1015.95 1015.99 1015.95 1015.91 1015.95 1015.95 1015.87 1015.75 1015.67 1015.67 1015.67
1023.99 1024.11 1024.31 1024.51 1024.67 1024.75 1024.87 1024.99 1025.07 1025.15 1025.11 1025.03 1024.95 1024.91 1024.91 1024.71 1024.55 1024.35 1024.23 1024.39 1024.31 1024.27 1023.99 1023.67 1023.51 1023.31 1023.15 1022.95 1022.67 1022.35 1021.95 1021.71 1021.35 1020.95 1020.67 1020.39 1020.11 1019.91 1019.71 1019.39 1019.03 1018.67 1018.31 1017.95 1017.71 1017.27 1016.87 1016.59 1016.43 1016.43 1016.43 1016.11 1015.91 1015.95 1015.91 1015.87 1015.67 1015.55 1015.55 1015.63 1015.83 1015.83 1015.83 1015.95 1015.95 1016.07 1016.15 1016.19 1016.35 1016.19 1015.95 1015.83 1015.79 1015.79
Wind_Speed
5 5 5 6 5 4 4 4 4 4 4 4 3 2 2 4 7 6 6 5 4 6 5 4 6 7 6 5 5 6 7 8 7 7 8 8 10 12 15 16 16 16 16 15 14 14 14 14 14 14 14 14 14 15 14 13 12 10 8 7 7 7 7 8 10 11 13 15 14 12 10 7 6 11
4 5 5 5 5 4 4 4 3 3 3 4 5 5 4 3 4 4 6 5 3 4 4 5 4 5 6 4 5 5 6 8 7 7 8 7 7 13 15 15 15 15 16 16 15 15 14 14 14 14 14 13 13 13 14 14 14 14 13 11 9 8 8 8 8 9 10 12 13 11 9 7 5 6
4 5 5 5 5 3 3 3 2 2 3 4 4 5 5 6 5 4 5 6 3 3 4 4 5 5 6 4 5 4 5 7 6 7 7 8 4 8 14 15 14 14 15 15 15 15 14 13 13 14 13 13 13 12 12 12 13 13 13 13 12 10 10 10 9 8 8 11 13 13 10 7 6 6
2 4 4 3 4 2 3 3 3 3 3 2 4 4 5 5 5 4 5 7 6 3 3 3 3 4 4 5 5 5 4 5 6 7 6 6 4 5 7 14 13 13 13 14 14 14 14 13 13 13 13 13 12 12 12 12 12 11 11 12 12 12 10 10 10 11 10 10 11 11 9 8 7 6
3 3 4 4 3 2 3 4 3 4 4 3 3 4 4 5 4 4 5 6 6 4 2 2 3 3 2 5 5 5 5 4 4 6 6 7 6 6 4 7 13 11 12 12 13 13 14 13 13 12 12 12 12 11 11 12 12 12 12 12 12 11 12 12 11 10 10 10 10 11 9 7 7 6
2 3 4 5 4 2 3 4 5 5 5 5 5 4 4 4 4 2 4 5 5 5 3 3 2 3 2 4 4 4 4 4 3 6 6 6 6 6 5 4 8 10 10 11 11 12 12 13 13 12 12 12 12 11 12 12 12 12 11 12 13 12 12 11 11 11 10 10 9 9 9 7 6 6
4 3 4 5 4 2 4 4 3 4 5 4 5 5 4 5 4 4 4 4 5 5 4 2 3 2 3 3 4 3 3 3 3 4 5 5 5 5 5 4 4 9 8 9 9 10 10 12 12 12 12 11 10 11 11 12 12 12 12 13 13 13 13 10 9 8 8 9 8 8 8 9 9 6
5 6 5 5 4 4 5 5 4 4 4 4 5 5 4 5 5 4 3 3 4 4 5 2 2 2 2 2 2 1 1 2 3 3 2 4 5 6 5 4 3 5 5 6 7 8 7 8 10 11 11 10 9 9 11 11 11 11 12 13 14 13 13 12 10 8 7 6 7 7 7 9 10 11
5 6 6 6 6 5 5 5 5 5 6 5 5 5 4 4 4 3 3 4 4 4 5 4 2 2 2 2 2 3 2 1 1 1 2 3 4 5 5 3 2 3 1 3 6 6 6 6 8 9 10 9 8 8 9 10 10 10 10 12 13 14 12 11 11 10 9 7 5 6 5 5 9 10
5 6 7 6 6 7 7 6 5 6 7 5 5 5 4 5 4 4 4 3 4 4 4 3 3 2 1 1 2 2 2 2 3 4 2 1 2 4 5 3 2 3 4 5 6 4 7 8 8 7 10 10 7 7 8 9 9 9 9 11 13 13 12 11 10 10 9 8 6 5 4 3 5 9
6 6 7 7 7 8 8 7 7 7 6 5 6 5 5 4 5 4 3 3 4 3 3 3 1 2 2 1 1 2 2 1 3 5 5 4 4 4 5 5 2 2 4 4 4 3 5 7 7 7 9 10 7 8 9 8 6 9 10 10 11 11 12 12 10 10 9 9 8 7 5 4 4 3
7 7 7 7 7 8 9 8 7 8 7 6 6 5 5 5 5 4 4 3 3 3 2 1 2 1 1 2 1 0 2 3 3 5 6 7 8 7 6 4 3 4 5 7 7 2 4 5 5 8 9 5 3 9 9 7 5 8 9 10 13 12 12 11 11 10 9 9 8 7 7 5 3 1
6 6 7 7 7 8 8 7 5 7 8 7 7 6 6 6 6 5 4 4 3 3 2 2 2 1 1 1 1 1 3 4 4 3 4 5 6 8 8 6 2 4 7 8 7 5 3 5 5 4 5 5 8 6 7 5 8 11 11 12 11 11 11 11 10 9 8 8 7 7 6 5 4 2
6 6 5 5 6 6 8 8 8 7 9 11 8 8 7 7 6 5 5 4 3 2 2 1 1 2 2 1 1 2 2 1 1 2 4 6 6 7 7 6 2 3 7 9 8 6 3 4 5 4 5 4 4 5 4 6 8 10 11 11 10 11 11 11 11 10 9 8 7 6 5 4 4 3
6 4 4 4 4 6 7 8 10 10 11 12 9 10 12 9 9 7 5 3 3 2 1 1 1 2 3 0 0 0 1 0 2 2 3 4 5 6 8 9 7 2 9 8 9 8 4 4 6 5 4 4 4 4 5 9 8 8 10 11 10 10 10 10 10 9 9 8 8 7 6 5 4 5
4 5 5 4 3 3 4 4 7 9 11 11 6 6 9 7 6 9 1 3 3 3 2 2 3 2 3 1 1 1 1 1 2 2 3 3 4 6 6 7 7 6 6 8 9 9 5 4 5 5 4 4 4 5 8 10 7 7 7 9 9 9 10 9 9 9 7 7 7 7 7 6 6 5
3 3 3 3 3 2 2 5 5 5 6 7 5 6 8 9 6 6 8 8 4 2 3 3 3 3 2 3 2 1 1 0 3 3 4 4 5 5 6 7 7 7 5 6 8 9 8 5 5 6 4 4 5 6 5 8 10 7 5 8 8 7 8 8 8 8 7 6 5 5 7 7 6 6
3 3 3 3 3 2 2 2 2 3 4 7 7 7 6 5 6 7 7 7 8 5 1 1 2 2 0 2 2 2 1 2 3 4 5 5 6 6 7 8 9 8 4 5 6 9 8 5 6 7 6 5 6 6 6 10 10 5 6 8 7 7 5 5 5 6 7 6 5 5 5 5 5 6
3 3 2 3 3 2 2 2 2 2 4 7 7 7 6 5 5 5 5 4 3 3 2 2 2 3 2 2 2 1 1 1 2 3 5 5 6 7 8 9 8 7 5 4 4 9 8 7 7 7 7 7 7 6 7 8 1 3 6 7 7 6 6 5 5 5 5 6 6 5 5 4 4 5
2 2 3 2 2 3 3 5 5 2 4 7 7 7 7 6 6 7 5 7 8 7 5 4 4 3 4 5 3 3 2 1 2 3 4 5 6 6 7 8 7 7 4 4 5 8 8 6 7 7 7 8 8 7 7 4 6 2 4 7 9 8 8 7 6 7 7 6 6 6 5 5 4 5
3 3 3 2 2 3 5 5 6 4 2 6 6 6 6 5 5 5 5 7 9 9 9 9 8 7 5 3 3 2 3 3 4 4 5 5 4 7 9 8 7 7 5 5 6 8 8 6 7 9 8 8 9 9 7 6 5 2 6 8 8 8 9 10 9 8 7 8 8 7 7 7 7 7
5 7 10 5 4 4 5 5 6 3 2 4 5 5 6 5 5 4 3 3 3 5 6 6 5 5 3 1 3 2 1 3 5 4 6 6 6 8 8 9 8 9 8 7 4 6 7 8 7 9 8 9 8 7 6 5 5 7 10 10 9 9 9 10 10 10 10 9 9 8 8 7 8 8
6 6 9 12 9 7 7 8 7 4 2 4 4 4 4 4 4 4 3 3 3 2 2 3 3 4 5 4 3 3 6 5 7 4 5 5 6 8 8 9 9 9 6 0 2 7 8 8 8 8 9 8 6 5 5 5 7 8 8 8 8 8 9 10 10 10 11 12 10 9 8 7 6 7
5 6 7 8 9 11 11 11 11 10 9 6 5 3 3 4 4 4 3 2 1 1 0 0 1 2 2 2 3 3 3 4 4 5 5 6 6 8 9 9 9 10 8 5 4 8 9 8 10 7 8 10 9 6 7 9 9 10 10 10 9 10 9 11 11 13 12 12 12 11 10 9 8 8
6 5 6 6 7 10 11 11 11 11 10 7 5 4 3 4 5 3 3 3 2 0 0 2 3 3 3 3 4 4 4 4 4 5 6 7 7 8 9 10 10 11 9 8 4 9 10 10 11 9 11 12 12 13 10 11 11 10 10 10 10 10 10 10 9 9 10 13 13 13 11 11 10 8
6 5 5 6 6 10 11 11 11 11 10 9 7 7 8 7 4 3 3 1 0 1 2 3 4 4 4 4 5 5 5 5 5 6 7 7 8 8 9 10 11 12 11 8 2 10 12 12 12 12 12 12 13 13 13 12 11 10 10 9 9 10 10 10 10 10 10 10 8 9 8 10 11 11
6 6 7 6 7 10 10 10 10 9 9 9 7 7 7 7 4 1 1 1 1 2 3 4 5 5 5 5 5 6 6 6 6 7 7 7 8 9 9 10 11 13 13 13 13 12 13 13 12 13 13 12 14 13 13 12 11 9 9 9 10 10 10 10 10 10 10 9 9 7 5 9 11 12
7 7 6 7 8 10 11 11 11 11 10 7 7 7 6 4 1 1 1 1 2 3 4 5 5 5 5 6 6 6 6 7 8 8 8 9 10 10 10 11 11 12 13 13 13 13 13 14 13 13 13 13 13 13 13 12 11 10 11 10 10 10 10 11 11 10 10 10 10 10 9 7 7 8
6 9 11 12 11 12 12 13 12 10 9 9 8 6 3 2 1 2 2 3 4 4 4 5 5 6 5 6 6 6 7 8 8 9 9 9 9 9 10 10 10 10 9 10 11 11 12 12 13 12 12 12 13 13 13 13 12 12 11 11 11 10 9 9 10 10 9 9 9 10 10 9 8 7
13 12 12 13 12 10 8 6 6 6 6 7 7 4 1 1 2 2 3 3 4 4 5 5 6 6 6 6 7 9 8 8 9 9 8 8 8 8 8 9 9 9 10 11 11 11 11 11 12 11 12 12 12 13 12 13 13 12 11 11 12 11 10 11 11 10 10 10 10 10 9 9 9 9
9 9 7 7 9 9 10 9 8 8 6 5 3 2 2 2 2 1 2 3 3 4 4 5 5 6 8 8 8 7 7 8 8 7 8 8 8 8 9 10 10 10 10 10 10 10 10 10 11 11 11 11 11 12 12 12 13 13 12 11 10 10 8 9 10 10 10 10 10 9 9 10 10 8
9 9 10 10 7 6 6 5 4 3 3 2 1 1 1 1 1 0 3 5 3 3 4 5 6 8 8 8 8 7 7 8 8 8 8 8 9 9 9 9 10 10 10 9 9 9 10 10 10 10 11 11 12 11 11 12 12 12 12 11 11 11 10 11 11 11 11 11 10 9 8 8 8 8
8 7 6 4 5 4 3 2 2 2 2 1 2 2 1 1 1 2 3 4 4 4 5 5 5 7 8 8 7 7 8 8 8 8 8 9 9 9 8 10 10 10 10 10 9 9 8 9 9 10 10 11 12 12 12 12 12 11 12 11 10 10 10 10 10 10 11 11 10 8 8 8 8 8
7 5 4 4 3 3 2 2 2 1 0 0 0 1 1 1 1 3 3 4 4 4 5 5 6 7 6 7 8 8 8 9 9 9 9 9 9 9 8 9 10 10 10 10 10 9 9 9 9 9 9 10 11 12 11 11 12 12 11 11 10 10 10 10 10 11 10 10 9 8 8 9 8 7
5 5 4 4 3 2 2 1 1 1 1 0 0 0 1 1 1 2 2 3 3 3 4 4 6 6 6 7 7 8 8 9 9 9 8 8 9 9 9 10 10 10 10 10 10 10 9 9 9 9 9 9 10 10 11 12 11 12 10 10 9 9 9 8 9 9 9 9 7 8 9 10 10 8
5 4 4 3 3 2 2 1 1 1 1 1 0 1 2 2 2 3 2 4 5 4 4 5 6 6 6 7 7 8 8 8 9 9 8 8 8 9 9 10 10 10 10 10 10 10 9 9 8 9 9 8 8 9 8 12 14 10 9 7 7 8 8 8 7 7 8 7 7 7 8 9 8 6
5 4 3 3 2 2 2 2 1 1 1 0 0 1 2 3 3 3 4 4 4 4 4 5 6 6 6 7 7 7 8 8 9 8 9 8 8 9 9 9 9 10 10 10 9 10 9 9 8 8 8 8 9 10 9 4 10 14 9 8 8 7 5 5 5 5 6 6 7 7 7 7 7 4
5 4 3 3 4 3 2 2 2 1 0 0 1 2 2 4 5 5 5 4 3 4 4 6 6 6 7 6 8 8 8 8 8 9 8 8 8 8 8 9 9 9 10 10 10 10 9 9 9 8 8 9 10 10 9 6 4 5 11 10 7 6 4 6 6 5 5 5 6 6 4 5 5 4
6 4 3 3 4 3 2 2 2 1 1 1 1 2 2 4 4 4 3 3 3 4 5 6 6 6 7 7 7 8 9 9 9 9 9 8 8 9 9 9 9 9 10 10 10 9 9 9 9 9 9 9 9 9 8 8 7 6 2 5 8 8 8 6 7 6 6 5 3 1 1 0 2 2
5 5 4 4 4 3 3 3 1 0 0 1 2 3 4 4 4 4 4 3 4 4 5 6 6 7 7 8 8 8 8 9 9 8 9 9 9 9 10 9 10 10 10 10 10 9 9 9 7 8 8 9 8 8 8 8 8 7 8 10 13 12 8 6 6 7 7 5 4 4 3 1 1 0
6 4 4 4 4 4 3 2 2 0 1 2 3 3 4 4 4 3 3 4 4 4 5 7 6 7 8 8 8 8 9 9 9 8 8 9 9 9 10 11 10 9 9 10 10 10 10 9 8 8 8 8 7 5 6 7 7 6 6 5 5 7 7 7 7 7 6 4 4 3 3 2 1 1
4 4 3 4 5 4 3 2 1 0 0 1 2 2 3 3 3 5 6 4 3 3 5 6 7 7 8 8 8 8 8 9 9 9 9 9 9 10 10 9 9 10 9 10 11 11 10 10 7 7 6 6 5 5 6 8 7 6 4 4 1 6 5 3 5 9 8 6 4 2 1 1 1 2
5 4 4 4 4 4 3 1 1 1 1 1 2 2 3 3 3 3 2 2 3 5 6 6 6 7 8 8 8 8 8 9 9 10 10 10 9 9 9 9 9 10 10 10 10 10 10 8 6 6 5 4 5 5 7 7 6 5 5 3 2 1 1 6 8 8 7 8 6 2 1 1 2 1
4 4 4 4 3 3 2 1 1 0 1 2 2 2 3 3 3 3 2 3 3 5 6 6 7 7 8 8 8 8 8 8 9 10 10 10 9 9 9 9 10 10 10 9 9 9 9 8 6 5 5 5 4 5 6 6 5 4 4 3 2 1 0 1 2 4 6 11 13 8 5 4 1 1
4 4 4 3 3 2 1 0 0 0 1 2 2 2 3 3 3 3 2 2 2 5 6 6 7 7 8 8 8 9 9 10 10 9 9 9 9 9 9 9 9 9 10 9 9 9 8 7 6 4 5 5 4 4 5 5 4 3 3 2 1 0 1 1 2 3 4 4 10 10 8 8 10 12
Wind_Direction
118 120 114 108 112 99 85 83 85 85 80 76 70 69 117 135 136 135 106 79 85 65 32 57 57 42 53 46 44 49 48 19 11 60 59 60 58 42 47 43 42 39 37 35 34 32 32 32 33 34 34 33 31 29 27 26 25 23 9 346 317 307 293 288 285 284 288 285 285 294 300 301 304 227
111 119 118 115 112 108 103 97 92 94 89 82 75 70 60 48 102 114 112 100 55 80 71 46 57 46 49 59 55 56 57 20 29 50 60 62 66 65 51 47 43 40 36 35 31 27 25 24 24 26 28 28 28 27 24 20 18 14 12 11 1 339 323 302 288 290 286 286 281 279 271 273 241 246
109 116 116 118 117 125 114 120 111 104 103 100 97 87 73 70 69 92 116 115 73 11 63 63 49 45 41 44 60 61 55 25 26 55 53 57 53 85 61 49 45 40 38 34 31 27 23 20 17 17 19 20 22 22 21 19 17 14 11 7 3 352 339 327 314 302 296 290 292 289 287 275 255 221
119 125 126 123 122 134 139 130 128 121 99 98 107 103 100 94 84 82 84 96 107 66 55 73 76 51 42 32 53 60 58 60 28 56 53 44 17 58 81 63 44 42 36 34 30 27 23 19 16 12 12 15 17 18 17 15 14 13 9 5 2 355 345 346 335 328 318 309 300 294 290 285 282 274
154 145 135 132 128 150 137 131 138 133 130 128 113 110 109 102 94 89 102 110 119 118 78 73 74 44 6 60 41 56 53 45 57 52 49 41 41 42 53 74 54 36 36 32 28 24 19 15 13 9 9 11 14 17 16 14 12 8 4 359 358 353 352 350 350 340 328 316 305 308 308 287 268 257
161 161 156 149 156 186 154 157 151 144 151 146 139 131 121 109 103 86 97 100 115 123 144 122 112 82 12 81 54 56 41 44 34 48 46 45 37 35 27 57 62 38 34 29 28 21 16 11 5 3 3 4 7 12 14 15 13 8 3 357 352 353 353 353 350 344 338 322 312 309 309 293 272 255
168 180 179 172 172 181 175 176 154 158 159 158 139 132 126 118 112 110 107 121 112 126 122 145 123 107 78 54 64 69 63 32 26 48 43 36 36 32 25 34 65 56 23 31 23 14 11 6 359 357 357 356 359 4 7 10 8 6 1 356 351 351 349 342 338 342 336 329 318 309 311 305 291 271
188 195 193 188 184 186 190 182 171 177 167 166 144 145 135 134 129 118 125 107 113 130 129 134 113 121 133 128 87 94 109 54 45 38 61 48 41 27 26 30 30 54 19 28 17 4 356 2 350 346 347 349 350 354 360 2 4 2 358 352 349 345 347 342 333 330 331 328 318 310 313 305 292 277
210 203 209 199 190 192 200 191 192 181 182 172 162 160 152 144 133 133 126 117 121 127 125 135 139 153 130 105 96 40 13 44 51 64 51 43 37 30 17 16 35 152 202 14 9 347 329 5 339 335 336 338 340 342 348 352 355 355 352 348 344 342 336 333 330 325 322 315 306 308 312 317 301 288
220 221 219 210 199 200 206 203 196 186 187 175 177 168 168 149 146 141 139 136 118 114 113 131 143 155 99 132 86 55 41 24 18 12 13 192 43 20 11 11 11 355 354 344 351 339 334 2 328 341 324 322 326 323 330 334 343 345 344 342 338 333 325 324 320 318 317 311 302 289 297 289 293 302
231 232 230 219 208 211 213 209 198 189 186 185 184 175 164 164 157 160 155 145 132 120 129 125 107 138 132 53 56 68 3 48 30 14 2 355 11 5 354 354 6 345 336 323 232 269 296 294 296 320 294 297 304 312 314 314 340 337 338 336 331 323 319 313 313 313 313 310 309 302 282 276 270 290
225 227 230 229 220 220 219 216 204 190 189 187 190 177 172 170 174 170 159 159 142 140 138 119 143 152 153 160 145 77 9 14 27 25 359 344 345 347 344 339 348 354 338 335 333 260 255 291 257 249 253 223 327 294 297 323 345 338 338 333 327 320 312 306 306 309 311 310 311 309 298 284 263 202
226 230 228 227 226 222 239 240 231 206 189 183 191 178 179 177 183 181 177 171 159 157 165 158 181 214 202 81 48 41 25 18 1 352 347 334 340 333 331 341 29 1 344 336 331 330 335 329 328 327 333 348 329 318 298 313 357 345 339 331 321 309 306 305 303 305 311 312 317 321 320 312 298 269
242 244 245 240 224 231 233 237 238 237 220 210 203 174 178 174 178 182 187 188 189 180 184 161 328 301 324 52 46 36 72 33 331 337 342 335 336 328 326 321 5 7 350 339 330 330 338 328 322 329 328 343 315 327 316 6 343 330 327 319 311 312 313 315 311 311 315 317 321 326 330 338 337 331
275 268 264 270 206 204 217 224 220 219 216 224 241 184 181 174 178 184 188 192 186 190 205 131 197 293 307 111 47 62 31 112 344 338 326 322 325 332 332 325 327 52 2 336 322 319 335 321 325 324 325 330 328 323 330 345 318 322 322 317 317 319 319 323 324 324 327 334 338 340 345 356 0 354
281 286 287 285 283 259 242 253 207 207 213 215 228 194 179 171 37 22 17 180 186 189 185 159 204 243 267 256 229 167 226 335 307 303 307 307 318 317 314 307 308 335 0 328 314 306 315 317 313 310 310 314 318 318 305 292 297 309 316 312 313 316 321 321 320 318 324 331 340 341 340 345 353 355
310 309 303 296 289 299 161 226 235 217 193 174 136 128 102 74 74 67 52 30 358 206 195 205 203 226 264 253 199 99 79 31 299 303 302 317 309 302 295 299 307 312 337 308 305 306 311 304 309 307 305 309 312 301 277 307 309 311 303 305 302 310 315 320 324 326 324 325 333 336 338 341 339 339
344 337 322 319 317 333 302 284 238 220 183 157 149 154 158 131 105 86 71 71 54 35 13 239 258 109 285 303 85 106 126 290 305 310 307 314 305 299 298 302 291 288 278 284 304 297 301 315 308 300 304 309 304 293 306 291 289 306 302 298 300 303 304 301 311 317 316 311 317 324 332 327 327 323
6 356 343 333 339 354 339 7 330 213 179 160 149 139 115 100 75 53 38 30 38 60 58 65 80 99 93 85 101 159 235 273 296 306 302 300 294 291 284 274 260 267 246 242 282 291 299 301 292 295 304 304 296 296 294 275 14 326 301 284 280 278 280 288 282 278 286 299 303 316 322 322 317 320
23 18 1 7 29 32 46 53 35 21 143 139 127 115 108 98 82 67 53 37 42 47 60 71 80 88 61 27 21 10 342 288 275 267 263 262 261 274 288 291 295 285 271 230 281 288 291 296 290 295 301 297 291 294 292 269 145 254 266 278 281 279 280 281 279 279 276 266 271 270 281 289 298 289
55 36 22 47 57 69 68 44 67 59 77 125 125 121 115 111 109 101 78 54 54 60 63 66 69 70 72 64 31 28 351 332 325 292 283 284 307 300 294 294 295 292 296 270 273 284 286 292 297 297 298 296 296 290 281 283 155 249 268 259 259 273 288 286 277 267 264 269 263 261 250 262 266 271
77 54 33 27 80 83 77 74 80 66 135 126 123 127 130 133 121 109 105 110 87 74 78 77 83 83 67 50 254 251 233 209 257 286 294 314 303 289 290 293 298 297 290 277 261 275 282 299 293 296 297 293 276 271 277 283 275 234 238 234 240 255 265 274 278 274 267 256 256 254 248 253 274 259
84 75 53 42 52 71 80 71 69 55 90 120 129 136 136 127 120 115 134 127 136 157 167 151 170 180 186 208 236 157 177 209 228 253 278 292 286 290 293 293 294 291 283 333 175 285 294 298 292 296 301 295 294 278 268 268 283 292 291 292 283 246 241 257 263 264 262 263 259 252 251 252 248 277
93 87 82 66 61 79 78 75 69 58 52 89 107 123 131 136 130 140 139 78 45 114 228 182 229 276 274 259 242 254 242 229 251 266 272 279 283 284 285 283 279 277 283 288 274 288 290 286 283 280 281 293 294 287 287 287 285 292 297 294 282 277 262 247 242 233 244 247 246 251 256 250 235 271
120 107 91 89 66 78 76 75 71 69 59 57 84 76 91 68 87 118 137 118 245 207 316 274 268 264 264 267 267 268 268 274 275 275 271 272 272 275 279 281 280 277 278 291 325 285 287 289 286 284 279 280 282 286 284 288 287 289 288 285 284 286 284 277 281 274 232 217 225 235 240 243 229 239
121 114 115 107 90 87 83 78 75 68 61 49 72 64 76 86 96 101 93 102 89 279 276 285 287 286 289 293 293 290 287 285 281 282 282 276 274 273 274 277 281 284 283 282 224 280 284 281 280 283 282 279 279 282 287 286 288 289 284 282 283 284 284 284 281 272 274 279 267 222 227 219 229 224
120 115 109 103 95 91 87 85 83 83 88 82 85 97 92 89 109 171 80 27 285 299 301 301 295 296 293 298 301 299 299 298 295 290 289 290 287 283 280 276 276 278 284 286 282 274 271 272 274 271 275 276 280 283 279 282 285 288 284 282 283 280 278 278 272 271 270 271 266 261 217 220 224 228
123 128 122 113 110 100 96 88 79 66 63 86 97 98 103 121 164 15 17 307 328 302 296 296 299 301 306 302 301 305 306 306 303 300 297 292 287 288 289 285 280 276 279 280 281 276 271 273 274 272 270 274 275 277 281 282 282 281 282 283 281 279 278 276 276 275 272 265 267 264 265 252 219 211
105 94 106 117 113 108 104 105 102 89 80 82 85 87 103 238 18 6 344 331 319 308 306 308 308 304 307 309 306 310 309 303 293 287 292 294 293 290 287 284 281 280 276 275 276 276 275 273 273 275 273 270 271 272 274 279 281 281 283 287 282 279 280 278 276 276 273 272 272 270 267 265 260 239
107 114 112 112 117 120 125 123 103 98 95 92 95 95 297 22 18 347 339 326 317 315 314 312 307 312 317 314 316 309 302 299 302 307 301 299 296 296 294 293 287 284 283 281 278 276 275 274 273 274 272 269 266 270 271 275 276 278 279 276 281 286 279 276 273 267 261 261 261 265 265 267 269 277
117 117 116 97 84 88 79 83 96 112 148 149 141 101 55 37 8 358 344 341 320 313 312 310 312 311 312 314 310 303 305 300 300 303 298 295 294 297 295 293 292 291 288 285 281 282 281 278 274 271 271 271 270 268 271 273 276 278 277 277 276 269 274 279 279 276 277 275 275 272 277 278 276 263
119 115 112 121 129 131 131 134 133 118 99 97 95 53 58 55 67 90 218 242 275 295 305 304 301 310 311 304 304 303 296 294 296 297 295 293 292 293 294 291 288 292 293 291 288 281 271 269 270 269 267 268 269 273 273 271 272 275 277 274 272 271 270 270 272 274 274 278 279 278 277 276 273 269
127 134 140 140 144 145 140 142 143 135 132 100 102 99 9 26 342 321 341 330 322 315 307 301 304 311 310 305 300 295 295 296 298 298 295 292 290 290 288 286 290 293 296 297 296 293 288 284 277 273 272 273 271 271 271 273 269 268 271 272 270 270 273 268 268 269 274 270 267 265 267 267 267 267
141 150 150 152 150 154 162 161 154 144 129 125 116 104 90 304 343 337 319 314 313 313 300 298 305 308 304 298 299 299 299 299 297 296 289 289 289 289 288 290 290 291 290 291 293 295 295 291 289 281 274 268 266 264 264 266 270 269 265 269 269 272 269 268 264 266 266 265 271 273 271 270 259 257
147 152 154 148 151 151 161 155 122 107 117 95 58 35 346 331 317 308 305 316 316 300 296 292 306 304 299 297 299 298 297 296 296 297 294 290 289 288 290 291 292 293 294 294 293 294 296 295 291 288 284 280 278 271 247 246 263 263 270 265 267 265 272 277 280 275 275 275 272 269 274 273 273 272
154 160 156 160 155 157 150 117 103 112 104 90 15 346 332 335 336 322 318 330 306 299 295 306 312 310 305 303 301 299 297 296 294 295 295 295 293 292 290 287 288 291 293 291 291 291 290 288 287 286 286 285 284 283 276 215 222 257 265 275 272 274 273 283 307 309 297 293 289 280 271 272 278 286
155 157 156 155 152 152 136 140 152 138 116 67 2 341 331 323 327 319 322 298 283 286 283 305 307 306 305 305 304 300 299 296 296 296 294 295 294 292 292 293 293 293 290 287 286 286 283 281 279 276 277 280 278 277 276 291 226 224 260 269 269 268 312 332 316 305 300 288 291 285 277 277 279 286
152 151 152 149 151 147 141 146 139 137 108 29 342 328 315 317 318 319 314 301 297 294 302 313 321 318 315 314 309 304 300 296 295 296 296 297 296 297 297 297 295 292 291 290 288 283 278 273 268 262 263 268 276 276 286 287 288 234 223 252 268 284 289 287 291 285 291 292 281 294 301 281 282 300
151 152 153 153 150 150 150 146 138 111 57 1 337 321 319 319 321 318 311 303 299 298 308 323 326 329 321 315 310 305 302 302 301 301 302 302 299 297 297 295 294 294 295 293 290 285 277 268 262 258 256 260 260 272 285 291 281 293 254 213 288 286 278 276 279 282 280 286 271 223 284 6 43 77
143 145 147 144 146 148 147 140 131 106 24 325 312 330 326 316 316 311 306 306 310 299 314 328 325 323 320 320 313 308 302 298 299 302 304 303 300 296 295 297 296 295 292 291 292 292 288 279 264 259 264 260 266 271 279 282 287 283 276 268 246 245 258 268 267 275 281 274 272 265 256 212 211 270
145 146 146 146 147 149 141 138 121 86 329 319 312 306 306 316 301 301 310 310 312 317 331 330 325 319 318 314 309 308 305 304 305 307 306 303 299 297 297 296 295 294 293 292 294 294 290 290 287 260 257 275 272 276 269 263 262 269 270 267 207 224 257 274 268 267 267 272 261 261 259 252 246 192
151 147 143 150 147 141 133 121 102 49 322 309 303 316 313 298 291 279 277 260 275 304 321 326 325 321 318 315 313 310 308 308 309 308 306 304 304 304 301 303 302 301 296 291 291 291 293 296 294 276 271 266 260 245 252 260 270 278 279 288 151 129 97 7 276 252 251 261 243 227 201 207 229 232
145 143 145 146 139 135 127 117 85 359 314 300 313 318 306 297 302 293 304 331 328 333 334 326 326 324 320 318 316 314 311 311 312 309 304 304 305 305 304 303 300 296 291 287 287 289 290 291 286 285 275 257 248 242 257 264 269 275 278 267 273 277 56 58 49 56 54 38 22 350 288 274 256 281
146 146 146 146 142 138 120 86 32 353 288 309 317 303 298 307 308 302 311 334 327 332 331 328 328 328 323 319 316 315 315 316 316 310 306 305 303 299 297 295 293 291 290 290 294 295 297 295 287 282 269 259 254 253 259 265 268 270 278 295 310 308 292 82 80 63 51 36 21 8 19 32 48 2
148 147 145 145 140 135 127 133 207 275 302 316 311 306 301 300 310 311 315 315 315 322 321 328 329 327 324 320 317 317 321 317 314 313 309 308 306 303 297 297 297 298 297 299 299 298 299 297 293 274 256 258 254 251 259 264 278 291 287 294 300 89 98 71 72 64 46 43 16 18 55 69 82 92